Location: Tel Aviv
(32.0670°N, 34.7670°E)
Time: 22:14:10
(UTC+02:00)

CUTE-I - Pass Details

Date: 22 December 2025
Orbit: 805 x 817 km, 98.7° (Epoch: 21 January)

Event Time Altitude Azimuth Distance (km) Brightness Sun altitude
Rises 17:17:54 0° 167° (SSE) 3,303 ? -7.9°
Reaches altitude 10° 17:20:13 10° 168° (SSE) 2,377 ? -8.3°
Maximum altitude 17:25:29 85° 256° (WSW) 814 ? -9.4°
Drops below altitude 10° 17:30:48 10° 346° (NNW) 2,398 ? -10.4°
Sets 17:33:09 0° 347° (NNW) 3,334 ? -10.9°
